WGS F8 (USA 272)

Last updated on Wed Sep 09 2026 00:03:01 GMT+0000 (Coordinated Universal Time)

1 41879U 16075A 26251.40155539 -.00000224 00000+0 00000+0 0 9993 2 41879 0.0184 126.5337 0000143 20.8679 134.4403 1.00270100 35650
UTC large
Height (km)
Speed (km/s)
/
Latitude / Longitude
Inclination (degrees)
Orbital Period (minutes)
Azimuth
Elevation
Range (km)
Doppler Factor

Next 0 passes for location: London (51.5072 / 0.1276)

No passes found over London.
WGS F8 (USA 272)